Regional Weather Roundup
Issued by NWS

Home | Current Version | Previous Version | Text Only | Print | Product List | Glossary On
Versions: 1 2 3 4 5 6 7 8 9 10 11 12 13 14 15 16 17 18 19 20 21 22 23 24 25 26 27 28 29 30 31 32 33 34 35 36 37 38 39 40 41 42 43 44 45 46 47 48 49 50
000
ASCA44 KEWX 111920
RWRMX

LATIN AMERICA AND CARIBBEAN REGIONAL WEATHER ROUNDUP
NATIONAL WEATHER SERVICE AUSTIN/SAN ANTONIO TX
100 PM CST MON DEC 11 2017

NOTE: "FAIR" INDICATED FEW OR NO CLOUDS BELOW 12,000 FEET WITH NO
SIGNIFICANT WEATHER AND/OR OBSTRUCTIONS TO VISIBILITY.

BAJA CALIFORNIA

CITY           SKY/WX    TMP DP  RH WIND       PRES   REMARKS
LORETO         PTSUNNY   75  59  57 NE12      30.14F
LA PAZ         PTSUNNY   77  55  47 N16       30.12F
MEXICALI       MOSUNNY   70  12  11 NW7       30.24
S.J. DEL CABO  PTSUNNY   81  52  36 N14       30.09F
TIJUANA        SUNNY     81   1   4 NE15      30.21F

NORTHWESTERN MEXICO

CITY           SKY/WX    TMP DP  RH WIND       PRES   REMARKS
CULIACAN       CLOUDY    81  45  28 NE9       30.06F
DURANGO        CLOUDY    52  19  28 E5        30.41F
GUAYMAS        PTSUNNY   77  52  41 E12       30.12F
HERMOSILLO     PTSUNNY   81  45  28 SE10      30.19F
CD. JUAREZ     PTSUNNY   52  19  28 N7        30.39F
LOS MOCHIS     PTSUNNY   82  32  16 N12       30.10F
OBREGON        MOSUNNY   79  55  44 NW7       30.11F

NORTHEASTERN MEXICO

CITY           SKY/WX    TMP DP  RH WIND       PRES   REMARKS
CHIHUAHUA      CLOUDY    55  27  33 CALM      30.38F
MATAMOROS        N/A     70  34  26 N5        30.32F
MONCLOVA         N/A    N/A N/A N/A MISG        N/A
MONTERREY      PTSUNNY   64  37  36 N5        30.32F
NUEVO LAREDO   MOSUNNY   66  41  39 CALM      30.32F
PIEDRAS NEGRAS MOSUNNY   66  43  42 NW5       30.33F
REYNOSA        MOSUNNY   68  34  28 CALM      30.31F
SALTILLO       PTSUNNY   55  39  54 CALM      30.48R
TORREON        PTSUNNY   55  34  44 CALM      30.40F
CD. VICTORIA   PTSUNNY   68  32  26 MISG      30.32F

WESTERN MEXICO

CITY           SKY/WX    TMP DP  RH WIND       PRES   REMARKS
AGUASCALIENTES CLOUDY    55  10  16 N6        30.42F
COLIMA         CLOUDY    79  39  24 NE12      30.15F
DEL BAJIO      CLOUDY    59  16  18 N6        30.43F
GUADALAJARA    PTSUNNY   63  16  16 E5        30.35F
MANZANILLO       N/A    N/A N/A N/A MISG        N/A
MAZATLAN       CLOUDY    82  48  30 CALM      30.06F
P. VALLARTA    CLOUDY    84  46  26 N7        30.01F
URUAPAN        CLOUDY    68  52  56 S8        30.26F
ZACATECAS      CLOUDY    54  18  24 CALM      30.40F

CENTRAL MEXICO

CITY           SKY/WX    TMP DP  RH WIND       PRES   REMARKS
CUERNAVACA       N/A    N/A N/A N/A MISG        N/A
MEXICO CITY    MOSUNNY   59  14  17 E5        30.40F
MORELIA        PTSUNNY  N/A N/A N/A SW7       30.36F
POZA RICA      MOSUNNY   75  48  38 N5        30.34
PUEBLA         MOSUNNY   66   7   9 MISG      30.37F
QUERETARO      PTSUNNY   61  12  15 E8        30.41F
S. LUIS POTOSI CLOUDY    54   9  16 CALM      30.42F
TAMPICO        PTSUNNY   72  54  53 E7        30.30F
TOLUCA         PTSUNNY   64   7  10 NW3       30.42F

SOUTHERN MEXICO

CITY           SKY/WX    TMP DP  RH WIND       PRES   REMARKS
ACAPULCO       MOSUNNY   84  66  54 S3        29.97F
B. DE HUATULCO MOSUNNY  N/A N/A N/A CALM      30.01F
OAXACA         PTSUNNY   64  32  29 CALM      30.33F
P. ESCONDIDO   MOSUNNY   79  68  69 S12       30.09F
VERACRUZ       PTSUNNY   75  48  38 NE14      30.29F
ZIHUATANEJO    PTSUNNY   88  70  55 W9        29.96F HX  92

YUCATAN PENINSULA

CITY           SKY/WX    TMP DP  RH WIND       PRES   REMARKS
CAMPECHE       MOSUNNY   75  61  60 NW12      30.19F
CANCUN         PTSUNNY   72  64  78 NW7       30.18F
CHETUMAL       PTSUNNY   75  55  50 N12       30.18F
CD. DEL CARMEN CLOUDY   N/A N/A N/A SE7       30.24F
COZUMEL        PTSUNNY   75  63  64 N18       30.16F
MERIDA         CLOUDY    73  61  64 W7        30.22F
MINATITLAN     DRZL/FOG  61  61 100 NW9       30.24  VSB 1
TAPACHULA      PTSUNNY   86  72  62 SW7       29.95F HX  92
TUX. GUTIERREZ PTSUNNY   73  54  49 NE7       30.18F
VILLAHERMOSA   CLOUDY    72  63  73 NE6       30.25F

CENTRAL AMERICA

CITY           SKY/WX    TMP DP  RH WIND       PRES   REMARKS
BELIZE CITY    MOSUNNY   75  59  57 NW9       30.17F
MANAGUA        PTCLDY    84  64  51 SW7       29.89F

CARIBBEAN

CITY           SKY/WX    TMP DP  RH WIND       PRES   REMARKS
ARUBA          MOSUNNY   84  75  74 SE12      29.80F HX  92
CURACAO        MOSUNNY   84  70  61 NE8       29.83F
KINGSTON       PTSUNNY   81  73  78 SE8       29.86
NASSAU         PTSUNNY   75  57  53 N12       30.10F
SAN JUAN       MOSUNNY   82  70  65 N9        29.89F
SANTO DOMINGO  MOSUNNY   88  73  62 S5        29.86F HX  96
ST. CROIX      MOSUNNY   82  72  69 NE10      29.87F
ST. KITTS      MOSUNNY   82  72  69 NE10      29.86S
ST. MAARTEN    MOSUNNY   84  68  58 E10       29.86F
ST. THOMAS       N/A    N/A N/A N/A MISG      29.87

$$





USA.gov is the U.S. government's official web portal to all federal, state and local government web resources and services.